Location: Bidart
(43.4376°N, 1.5913°W)
Time: 15:40:51
(UTC+00:00)

Cosmos 381 Rocket - Pass Details

Date: 19 May 2025
Orbit: 954 x 995 km, 74.0° (Epoch: 17 June)

Event Time Altitude Azimuth Distance (km) Brightness Sun altitude
Exits shadow 23:17:15 52° 214° (SW) 1,198 4.6 -25.7°
Maximum altitude 23:18:55 80° 291° (WNW) 997 4.5 -25.8°
Drops below altitude 10° 23:25:18 10° 19° (NNE) 2,749 7.6 -26.0°
Sets 23:27:53 0° 20° (NNE) 3,707 8.5 -26.1°
